Location: Lhota
(50.0887°N, 14.0116°E)
Time: 00:42:30
(UTC+00:00)

Nadezhda 1 Rocket - Pass Details

Date: 19 May 2025
Orbit: 941 x 1003 km, 83.0° (Epoch: 15 June)

Event Time Altitude Azimuth Distance (km) Brightness Sun altitude
Rises 19:48:07 0° 184° (S) 3,597 6.6 -8.1°
Reaches altitude 10° 19:50:34 10° 184° (S) 2,660 5.9 -8.4°
Maximum altitude 19:56:39 83° 98° (E) 967 4.0 -9.1°
Drops below altitude 10° 20:02:52 10° 11° (N) 2,713 6.9 -9.7°
Sets 20:05:24 0° 11° (N) 3,673 7.6 -10.0°
